FW0579 Weather Reports


Display with metric or nautical units.
time (UTC)temp
F
wind
direction
speed
MPH
gust
MPH
rain 1hr
in
rain 24hr
in
rain mn
in
humidity
%
barometer
mb
20260508013014 83 252 6.0 10.0 0.00 0.00 0.00 49 1013.8
20260508011514 84 261 5.0 11.0 0.00 0.00 0.00 45 1014.0
20260508010014 84 248 4.0 10.0 0.00 0.00 0.00 43 1013.9
20260508004510 84 255 6.0 13.0 0.00 0.00 0.00 43 1013.9
20260508003009 85 240 4.0 8.0 0.00 0.00 0.00 44 1013.9
20260508001608 86 270 1.0 7.0 0.00 0.00 0.00 47 1013.9
20260508000008 86 287 2.0 10.0 0.00 0.00 0.00 47 1013.8
20260507234511 86 239 7.0 11.0 0.00 0.00 0.00 47 1014.1
20260507233013 86 234 2.0 10.0 0.00 0.00 0.00 47 1014.3
20260507231608 87 355 1.0 7.0 0.00 0.00 0.00 47 1014.4
20260507230009 86 238 2.0 8.0 0.00 0.00 0.00 47 1014.6
20260507224501 87 259 1.0 4.0 0.00 0.00 0.00 46 1015.0
20260507223113 86 258 2.0 7.0 0.00 0.00 0.00 48 1015.0
20260507221555 85 349 1.0 4.0 0.00 0.00 0.00 49 1015.3
20260507220054 85 246 3.0 8.0 0.00 0.00 0.00 48 1015.4
20260507214550 83 122 1.0 7.0 0.00 0.00 0.00 51 1015.7
20260507213049 83 253 2.0 9.0 0.00 0.00 0.00 51 1016.0
20260507211555 83 244 1.0 7.0 0.00 0.00 0.00 52 1016.3
20260507210104 82 284 2.0 7.0 0.00 0.00 0.00 51 1016.5
20260507204546 81 268 5.0 8.0 0.00 0.00 0.00 52 1016.5
20260507203039 79 230 2.0 8.0 0.00 0.00 0.00 54 1016.6
20260507201535 79 209 2.0 8.0 0.00 0.00 0.00 55 1016.8
20260507200041 79 233 3.0 8.0 0.00 0.00 0.00 56 1016.8
20260507194546 77 245 1.0 6.0 0.00 0.00 0.00 56 1016.9
20260507193028 76 296 4.0 10.0 0.00 0.00 0.00 58 1017.3
20260507191523 75 232 1.0 5.0 0.00 0.00 0.00 59 1017.3
20260507190036 74 277 3.0 7.0 0.00 0.00 0.00 61 1017.5
20260507184522 73 35 1.0 10.0 0.00 0.00 0.00 63 1017.7
20260507183017 72 225 4.0 10.0 0.00 0.00 0.00 64 1017.8
20260507181510 71 259 3.0 7.0 0.00 0.00 0.00 65 1017.8
20260507180012 70 301 2.0 6.0 0.00 0.00 0.00 66 1017.8
20260507174510 69 240 3.0 7.0 0.00 0.00 0.00 68 1017.8
20260507173007 68 292 3.0 7.0 0.00 0.00 0.00 70 1017.9
20260507171558 67 237 2.0 7.0 0.00 0.00 0.00 70 1017.9
20260507170058 66 268 2.0 4.0 0.00 0.00 0.00 74 1018.1
20260507164627 64 251 1.0 4.0 0.00 0.00 0.00 76 1018.1
20260507163053 64 253 2.0 4.0 0.00 0.00 0.00 78 1018.0
20260507161553 62 248 1.0 5.0 0.00 0.00 0.00 83 1018.1
20260507160042 60 269 2.0 4.0 0.00 0.00 0.00 85 1018.2
20260507154537 59 244 2.0 5.0 0.00 0.00 0.00 87 1018.2
20260507153040 58 248 2.0 8.0 0.00 0.00 0.00 88 1018.2
20260507151532 57 284 1.0 6.0 0.00 0.00 0.00 89 1018.4
20260507150029 56 254 1.0 5.0 0.00 0.00 0.00 90 1018.3
20260507144528 55 252 3.0 8.0 0.00 0.00 0.00 90 1018.3
20260507143022 55 244 2.0 6.0 0.00 0.00 0.00 90 1018.2
20260507141519 54 259 2.0 7.0 0.00 0.00 0.00 90 1018.4
20260507140019 54 252 0.0 3.0 0.00 0.00 0.00 90 1018.2
20260507134511 53 248 0.0 0.0 0.00 0.00 0.00 90 1018.1
20260507133008 53 247 0.0 0.0 0.00 0.00 0.00 89 1017.9
20260507131516 53 247 0.0 0.0 0.00 0.00 0.00 89 1017.7
20260507130004 53 247 0.0 0.0 0.00 0.00 0.00 89 1017.7
20260507124508 53 247 0.0 0.0 0.00 0.00 0.00 89 1017.6
20260507123002 53 247 0.0 0.0 0.00 0.00 0.00 88 1017.6
20260507121603 53 247 0.0 0.0 0.00 0.00 0.00 88 1017.5
20260507120100 54 247 0.0 0.0 0.00 0.00 0.00 88 1017.4
20260507114610 54 247 0.0 0.0 0.00 0.00 0.00 88 1017.4
20260507113128 54 247 0.0 0.0 0.00 0.00 0.00 88 1017.4
20260507111558 54 247 0.0 0.0 0.00 0.00 0.00 88 1017.4
20260507110001 54 247 0.0 0.0 0.00 0.00 0.00 87 1017.4
20260507104559 54 247 0.0 0.0 0.00 0.00 0.00 87 1017.4
20260507103059 55 247 0.0 0.0 0.00 0.00 0.00 87 1017.5
20260507101557 55 247 0.0 0.0 0.00 0.00 0.00 87 1017.5
20260507100050 55 247 0.0 0.0 0.00 0.00 0.00 87 1017.3
20260507094547 55 247 0.0 0.0 0.00 0.00 0.00 86 1017.4
20260507093049 55 247 0.0 0.0 0.00 0.00 0.00 86 1017.6
20260507091547 56 247 0.0 0.0 0.00 0.00 0.00 86 1017.7
20260507090044 56 247 0.0 0.0 0.00 0.00 0.00 86 1017.8
20260507084547 57 247 0.0 0.0 0.00 0.00 0.00 86 1017.9
20260507083041 57 247 0.0 0.0 0.00 0.00 0.00 86 1017.8
20260507081546 57 246 0.0 0.0 0.00 0.00 0.00 85 1017.9
20260507080043 57 246 0.0 2.0 0.00 0.00 0.00 84 1017.9
20260507074538 58 246 0.0 0.0 0.00 0.00 0.00 84 1017.9
20260507073034 58 246 0.0 0.0 0.00 0.00 0.00 83 1017.7
20260507071531 59 246 0.0 0.0 0.00 0.00 0.00 82 1017.7
20260507070030 59 246 0.0 0.0 0.00 0.00 0.00 82 1017.7
20260507064528 60 246 0.0 0.0 0.00 0.00 0.00 82 1017.6
20260507063028 60 246 0.0 3.0 0.00 0.00 0.00 81 1017.6
20260507061525 61 246 2.0 4.0 0.00 0.00 0.00 80 1017.6
20260507060022 61 261 2.0 6.0 0.00 0.00 0.00 79 1017.6
20260507054520 62 254 2.0 4.0 0.00 0.00 0.00 78 1017.5
20260507053018 63 251 2.0 5.0 0.00 0.00 0.00 77 1017.6
20260507051516 63 228 4.0 10.0 0.00 0.00 0.00 77 1017.5
20260507050024 64 247 4.0 9.0 0.00 0.00 0.00 76 1017.5
20260507044511 65 263 1.0 3.0 0.00 0.00 0.00 75 1017.4
20260507043019 66 259 1.0 6.0 0.00 0.00 0.00 74 1017.3
20260507041506 67 256 4.0 9.0 0.00 0.00 0.00 72 1017.3
20260507040007 68 275 5.0 9.0 0.00 0.00 0.00 70 1017.1
20260507034508 69 269 4.0 11.0 0.00 0.00 0.00 69 1016.9
20260507033005 71 225 5.0 9.0 0.00 0.00 0.00 66 1016.8
20260507031504 72 276 0.0 0.0 0.00 0.00 0.00 61 1016.6
20260507030006 73 276 0.0 2.0 0.00 0.00 0.00 59 1016.6
20260507024600 75 276 1.0 3.0 0.00 0.00 0.00 57 1016.4
20260507023109 75 278 0.0 2.0 0.00 0.00 0.00 57 1016.4
20260507021557 76 278 0.0 2.0 0.00 0.00 0.00 56 1016.2
20260507020104 77 277 1.0 3.0 0.00 0.00 0.00 54 1016.1
20260507014558 77 252 2.0 4.0 0.00 0.00 0.00 53 1016.2